Weather History for Watford City, ND

Change the Weather History Date:

Monday, April 14, 2014

  Actual Average (KISN) Record (KISN)
Temperature  
Mean Temperature 24 °F 43 °F  
Max Temperature 32 °F 57 °F 87 °F (1913)
Min Temperature 17 °F 29 °F 6 °F (1986)
Degree Days  
Heating Degree Days 40 22  
Month to date heating degree days 350  
Since 1 July heating degree days 8225  
Cooling Degree Days 0 0  
Month to date cooling degree days 0  
Year to date cooling degree days 0  
Moisture  
Dew Point 13 °F    
Average Humidity 63    
Maximum Humidity 93    
Minimum Humidity 32    
Precipitation  
Precipitation 0.03 in 0.03 in 0.84 in (1930)
Month to date precipitation 0.40  
Year to date precipitation 2.09  
Sea Level Pressure  
Sea Level Pressure 30.19 in    
Wind  
Wind Speed 8 mph (North)    
Max Wind Speed 14 mph    
Max Gust Speed 21 mph    
Visibility 10 miles    
Events Snow    
T = Trace of Precipitation, MM = Missing Value Source: NWS Daily Summary

Daily Weather History Graph

Daily Weather History Graph

Search for Another Location

Airport:

Trip Planner

Search our weather history database for the weather conditions in past years. The results will help you decide how hot, cold, wet, or windy it might be!

Date:

Astronomy

Apr. 14, 2014 Rise Set
Actual Time 7:05 AM CDT 8:41 PM CDT
Civil Twilight 6:33 AM CDT 9:14 PM CDT
Nautical Twilight 5:53 AM CDT 9:53 PM CDT
Astronomical Twilight 5:11 AM CDT 10:36 PM CDT
Moon 8:22 PM CDT (4/14) 6:42 AM CDT (4/14)
Length of Visible Light 14h 40m
Length of Day
13h 35m
Full, 100% of the Moon is Illuminated
Apr 14
Full
Apr 15
Full
Apr 22
Last Quarter
Apr 29
New
May 6
First Quarter

Hourly Weather History & Observations

Time (CDT) Temp. Windchill Dew Point Humidity Pressure Visibility Wind Dir Wind Speed Gust Speed Precip Events Conditions
12:15 AM 28.4 °F 21.2 °F 26.6 °F 93% 30.19 in 10.0 mi WNW 6.9 mph - N/A   Overcast
12:35 AM 28.4 °F 23.3 °F 26.6 °F 93% 30.19 in 10.0 mi WNW 4.6 mph - N/A   Mostly Cloudy
12:55 AM 26.6 °F 19.1 °F 24.8 °F 93% 30.18 in 10.0 mi WNW 6.9 mph - N/A   Partly Cloudy
1:15 AM 26.6 °F 19.1 °F 24.8 °F 93% 30.19 in 10.0 mi NW 6.9 mph - N/A   Mostly Cloudy
1:35 AM 26.6 °F 20.0 °F 24.8 °F 93% 30.19 in 10.0 mi NW 5.8 mph - N/A   Mostly Cloudy
1:55 AM 26.6 °F 18.2 °F 24.8 °F 93% 30.18 in 10.0 mi NW 8.1 mph - N/A   Partly Cloudy
2:15 AM 24.8 °F 19.1 °F 23.0 °F 93% 30.18 in 10.0 mi NNW 4.6 mph - N/A   Mostly Cloudy
2:35 AM 24.8 °F 17.9 °F 23.0 °F 93% 30.18 in 10.0 mi WNW 5.8 mph - N/A   Overcast
2:55 AM 26.6 °F 17.5 °F 23.0 °F 86% 30.18 in 10.0 mi NW 9.2 mph - N/A   Overcast
3:15 AM 24.8 °F 12.9 °F 23.0 °F 93% 30.17 in 10.0 mi North 13.8 mph 17.3 mph N/A   Overcast
3:35 AM 24.8 °F 14.0 °F 23.0 °F 93% 30.18 in 4.0 mi North 11.5 mph - N/A Snow Light Snow
3:55 AM 23.0 °F 13.9 °F 21.2 °F 93% 30.18 in 10.0 mi North 8.1 mph - 0.01 in   Mostly Cloudy
4:15 AM 23.0 °F 13.9 °F 21.2 °F 93% 30.19 in 10.0 mi NNE 8.1 mph - N/A   Mostly Cloudy
4:35 AM 21.2 °F 10.9 °F 19.4 °F 93% 30.19 in 10.0 mi NNE 9.2 mph - N/A   Overcast
4:55 AM 19.4 °F 10.4 °F 17.6 °F 93% 30.19 in 10.0 mi NNE 6.9 mph - N/A   Mostly Cloudy
5:15 AM 19.4 °F 11.5 °F 17.6 °F 93% 30.20 in 10.0 mi NNE 5.8 mph - N/A   Mostly Cloudy
5:35 AM 19.4 °F 14.3 °F 17.6 °F 93% 30.20 in 10.0 mi North 3.5 mph - N/A   Mostly Cloudy
5:55 AM 17.6 °F 12.3 °F 15.8 °F 93% 30.20 in 10.0 mi North 3.5 mph - N/A   Mostly Cloudy
6:15 AM 21.2 °F 9.5 °F 19.4 °F 93% 30.21 in 6.0 mi North 11.5 mph - N/A Snow Light Snow
6:35 AM 21.2 °F 9.5 °F 17.6 °F 86% 30.22 in 10.0 mi North 11.5 mph 18.4 mph 0.02 in Snow Light Snow
6:55 AM 21.2 °F 9.5 °F 15.8 °F 80% 30.22 in 10.0 mi North 11.5 mph - 0.02 in   Overcast
7:15 AM 19.4 °F 8.6 °F 15.8 °F 86% 30.23 in 10.0 mi North 9.2 mph - N/A   Overcast
7:35 AM 19.4 °F 8.6 °F 14.0 °F 80% 30.24 in 10.0 mi North 9.2 mph - N/A   Overcast
7:55 AM 17.6 °F 6.4 °F 14.0 °F 86% 30.25 in 10.0 mi North 9.2 mph - N/A   Scattered Clouds
8:15 AM 19.4 °F 8.6 °F 14.0 °F 80% 30.25 in 10.0 mi NNW 9.2 mph - N/A   Clear
8:35 AM 21.2 °F 10.9 °F 15.8 °F 80% 30.26 in 10.0 mi North 9.2 mph - N/A   Clear
8:55 AM 21.2 °F 10.9 °F 17.6 °F 86% 30.27 in 10.0 mi North 9.2 mph - N/A   Scattered Clouds
9:15 AM 23.0 °F 13.1 °F 17.6 °F 80% 30.27 in 10.0 mi North 9.2 mph - N/A   Partly Cloudy
9:35 AM 23.0 °F 11.7 °F 15.8 °F 74% 30.27 in 10.0 mi North 11.5 mph - N/A   Partly Cloudy
9:55 AM 23.0 °F 10.6 °F 14.0 °F 68% 30.28 in 10.0 mi North 13.8 mph - N/A   Partly Cloudy
10:15 AM 24.8 °F 13.4 °F 12.2 °F 59% 30.28 in 10.0 mi North 12.7 mph 17.3 mph N/A   Scattered Clouds
10:35 AM 24.8 °F 15.3 °F 14.0 °F 64% 30.28 in 10.0 mi NNE 9.2 mph - N/A   Partly Cloudy
10:55 AM 24.8 °F 14.6 °F 12.2 °F 59% 30.28 in 10.0 mi NNE 10.4 mph - N/A   Partly Cloudy
11:15 AM 24.8 °F 15.3 °F 14.0 °F 64% 30.28 in 10.0 mi NNE 9.2 mph - N/A   Scattered Clouds
11:35 AM 26.6 °F 15.2 °F 10.4 °F 51% 30.28 in 10.0 mi North 13.8 mph - N/A   Mostly Cloudy
11:55 AM 24.8 °F 14.6 °F 8.6 °F 50% 30.28 in 10.0 mi NNW 10.4 mph 18.4 mph N/A   Partly Cloudy
12:15 PM 24.8 °F 14.0 °F 6.8 °F 46% 30.27 in 10.0 mi North 11.5 mph 16.1 mph N/A   Partly Cloudy
12:35 PM 26.6 °F 16.2 °F 8.6 °F 47% 30.27 in 10.0 mi North 11.5 mph 17.3 mph N/A   Partly Cloudy
12:55 PM 26.6 °F 15.2 °F 6.8 °F 43% 30.26 in 10.0 mi North 13.8 mph 20.7 mph N/A   Partly Cloudy
1:15 PM 26.6 °F 16.2 °F 5.0 °F 40% 30.26 in 10.0 mi NNE 11.5 mph 18.4 mph N/A   Clear
1:35 PM 26.6 °F 18.2 °F 5.0 °F 40% 30.25 in 10.0 mi NNE 8.1 mph 16.1 mph N/A   Clear
1:55 PM 28.4 °F 23.3 °F 6.8 °F 40% 30.24 in 10.0 mi NNE 4.6 mph - N/A   Partly Cloudy
2:15 PM 26.6 °F 17.5 °F 6.8 °F 43% 30.24 in 10.0 mi NNE 9.2 mph 16.1 mph N/A   Scattered Clouds
2:35 PM 28.4 °F 19.7 °F 6.8 °F 40% 30.23 in 10.0 mi North 9.2 mph - N/A   Partly Cloudy
2:55 PM 28.4 °F - 6.8 °F 40% 30.22 in 10.0 mi Calm Calm - N/A   Clear
3:15 PM 28.4 °F 22.2 °F 8.6 °F 43% 30.22 in 10.0 mi WNW 5.8 mph - N/A   Clear
3:35 PM 32.0 °F 24.8 °F 6.8 °F 35% 30.21 in 10.0 mi North 8.1 mph - N/A   Clear
3:55 PM 30.2 °F 22.6 °F 6.8 °F 37% 30.20 in 10.0 mi ENE 8.1 mph - N/A   Clear
4:15 PM 32.0 °F 25.6 °F 6.8 °F 35% 30.19 in 10.0 mi NW 6.9 mph - N/A   Clear
4:35 PM 32.0 °F 24.8 °F 6.8 °F 35% 30.18 in 10.0 mi NNW 8.1 mph - N/A   Clear
4:55 PM 32.0 °F - 6.8 °F 35% 30.17 in 10.0 mi Calm Calm - N/A   Clear
5:15 PM 32.0 °F 28.7 °F 6.8 °F 35% 30.16 in 10.0 mi WSW 3.5 mph - N/A   Clear
5:35 PM 32.0 °F 27.5 °F 6.8 °F 35% 30.15 in 10.0 mi NNW 4.6 mph - N/A   Clear
5:55 PM 32.0 °F 27.5 °F 5.0 °F 32% 30.14 in 10.0 mi NNW 4.6 mph - N/A   Clear
6:15 PM 32.0 °F 28.7 °F 5.0 °F 32% 30.14 in 10.0 mi North 3.5 mph - N/A   Clear
6:35 PM 32.0 °F 27.5 °F 5.0 °F 32% 30.13 in 10.0 mi NNE 4.6 mph - N/A   Clear
6:55 PM 32.0 °F - 5.0 °F 32% 30.13 in 10.0 mi Calm Calm - N/A   Clear
7:15 PM 32.0 °F 26.4 °F 5.0 °F 32% 30.12 in 10.0 mi North 5.8 mph - N/A   Clear
7:35 PM 32.0 °F 28.7 °F 5.0 °F 32% 30.12 in 10.0 mi North 3.5 mph - N/A   Clear
7:55 PM 32.0 °F 27.5 °F 6.8 °F 35% 30.11 in 10.0 mi ENE 4.6 mph - N/A   Clear
8:15 PM 28.4 °F 24.6 °F 6.8 °F 40% 30.10 in 10.0 mi East 3.5 mph - N/A   Clear
8:35 PM 26.6 °F 19.1 °F 6.8 °F 43% 30.10 in 10.0 mi East 6.9 mph - N/A   Clear
8:55 PM 23.0 °F 14.7 °F 8.6 °F 54% 30.10 in 10.0 mi ESE 6.9 mph - N/A   Clear
9:15 PM 21.2 °F 12.6 °F 8.6 °F 58% 30.09 in 9.0 mi East 6.9 mph - N/A   Clear
9:35 PM 21.2 °F 11.7 °F 8.6 °F 58% 30.09 in 10.0 mi ESE 8.1 mph - N/A   Clear
9:55 PM 23.0 °F 13.9 °F 8.6 °F 54% 30.08 in 10.0 mi ESE 8.1 mph - N/A   Clear
10:15 PM 23.0 °F 12.4 °F 8.6 °F 54% 30.08 in 10.0 mi ESE 10.4 mph - N/A   Clear
10:35 PM 21.2 °F 9.5 °F 8.6 °F 58% 30.07 in 10.0 mi SE 11.5 mph - N/A   Clear
10:55 PM 21.2 °F 9.5 °F 10.4 °F 63% 30.07 in 10.0 mi ESE 11.5 mph - N/A   Clear
11:15 PM 21.2 °F 8.9 °F 10.4 °F 63% 30.06 in 10.0 mi SE 12.7 mph - N/A   Clear
11:35 PM 21.2 °F 8.9 °F 10.4 °F 63% 30.05 in 10.0 mi SE 12.7 mph - N/A   Clear
11:55 PM 21.2 °F 10.1 °F 10.4 °F 63% 30.05 in 10.0 mi SE 10.4 mph 16.1 mph N/A   Clear